TimeCDT,TemperatureF,Dew PointF,Humidity,Sea Level PressureIn,VisibilityMPH,Wind Direction,Wind SpeedMPH,Gust SpeedMPH,PrecipitationIn,Events,Conditions,WindDirDegrees,DateUTC
12:52 AM,37.9,28.9,70,30.02,10.0,WSW,3.5,-,N/A,,Overcast,250,2013-03-12 05:52:00
1:52 AM,36.0,27.0,70,30.02,10.0,West,4.6,-,N/A,,Clear,260,2013-03-12 06:52:00
2:52 AM,34.0,26.1,73,30.04,10.0,West,6.9,-,N/A,,Clear,260,2013-03-12 07:52:00
3:52 AM,33.1,25.0,72,30.04,10.0,West,4.6,-,N/A,,Clear,270,2013-03-12 08:52:00
4:52 AM,32.0,25.0,75,30.04,10.0,West,4.6,-,N/A,,Clear,280,2013-03-12 09:52:00
5:52 AM,33.1,24.1,70,30.06,10.0,West,5.8,-,N/A,,Clear,280,2013-03-12 10:52:00
6:52 AM,32.0,23.0,69,30.08,10.0,West,4.6,-,N/A,,Clear,280,2013-03-12 11:52:00
7:52 AM,32.0,24.1,73,30.09,10.0,WSW,4.6,-,N/A,,Clear,240,2013-03-12 12:52:00
8:52 AM,35.1,25.0,67,30.12,10.0,West,5.8,-,N/A,,Mostly Cloudy,280,2013-03-12 13:52:00
9:52 AM,37.9,25.0,60,30.14,10.0,NW,10.4,-,N/A,,Clear,310,2013-03-12 14:52:00
10:52 AM,43.0,23.0,45,30.16,10.0,West,8.1,-,N/A,,Clear,280,2013-03-12 15:52:00
11:52 AM,46.9,17.1,30,30.16,10.0,WNW,8.1,-,N/A,,Clear,300,2013-03-12 16:52:00
12:52 PM,48.0,24.1,39,30.15,10.0,WNW,10.4,-,N/A,,Clear,290,2013-03-12 17:52:00
1:52 PM,48.9,27.0,43,30.13,10.0,West,11.5,17.3,N/A,,Scattered Clouds,270,2013-03-12 18:52:00
2:52 PM,50.0,27.0,41,30.11,10.0,WSW,6.9,17.3,N/A,,Clear,250,2013-03-12 19:52:00
3:52 PM,53.1,25.0,34,30.09,10.0,West,10.4,-,N/A,,Clear,280,2013-03-12 20:52:00
4:52 PM,53.1,23.0,31,30.09,10.0,West,12.7,23.0,N/A,,Overcast,270,2013-03-12 21:52:00
5:52 PM,53.1,21.9,30,30.09,10.0,WNW,9.2,-,N/A,,Overcast,300,2013-03-12 22:52:00
6:52 PM,51.1,23.0,33,30.10,10.0,WNW,13.8,19.6,N/A,,Overcast,300,2013-03-12 23:52:00
7:52 PM,48.9,25.0,39,30.13,10.0,WNW,9.2,-,N/A,,Overcast,300,2013-03-13 00:52:00
8:52 PM,46.9,24.1,41,30.15,10.0,NW,12.7,21.9,N/A,,Mostly Cloudy,310,2013-03-13 01:52:00
9:52 PM,45.0,27.0,49,30.19,10.0,NW,13.8,21.9,N/A,,Overcast,320,2013-03-13 02:52:00
10:52 PM,41.0,24.1,51,30.20,10.0,NW,6.9,-,N/A,,Clear,310,2013-03-13 03:52:00
11:52 PM,39.0,23.0,53,30.21,10.0,WNW,5.8,-,N/A,,Clear,300,2013-03-13 04:52:00